Theta_e
342 343 344 344 341 341 341 338 340 341 338 339 340 339 337 336 335 334 333 332 333 336 334 329 325 325 328 329 329 333 336 336 335 334 332 330 328 329 332 331 331 333 335 333 332 334 334 333 331 330 328 324 323 323 323 324 324 323 323 324 326 328 329 328 328 328 327 327 327 327 328 327 327 326 326 326 326 324 324 324 325 325 325 326 326
343 343 344 343 341 341 341 339 340 340 339 339 339 338 337 336 334 334 334 333 335 336 331 327 325 327 332 334 334 336 337 336 335 333 332 330 328 329 332 333 333 334 334 332 332 332 331 329 326 323 322 321 321 323 323 323 323 322 323 325 327 328 329 329 328 328 327 327 327 327 327 327 327 326 325 325 325 324 324 325 325 325 325 325 326
341 342 342 340 339 341 340 340 341 340 338 338 337 338 337 335 335 335 334 334 335 334 328 327 327 328 333 336 336 336 336 335 334 333 332 331 330 331 333 334 334 334 332 332 332 327 324 324 321 319 319 320 321 322 322 323 323 323 323 325 327 328 328 329 329 328 328 327 327 326 327 326 326 324 323 324 324 323 324 325 325 325 325 326 326
340 340 340 339 339 340 339 339 340 339 338 337 337 337 336 336 335 334 335 334 333 330 326 328 329 329 334 337 336 335 334 334 333 333 333 332 331 333 334 335 334 333 332 332 329 322 319 319 318 319 320 320 321 321 321 322 322 323 323 325 327 326 327 328 328 328 328 327 326 326 326 327 327 325 323 322 322 322 323 324 325 325 325 326 327
339 339 339 339 339 339 339 338 339 338 337 336 337 336 335 335 335 335 335 331 328 326 326 329 330 332 336 336 335 335 333 333 334 333 333 332 333 334 335 335 333 332 330 327 323 319 318 318 319 321 321 321 321 321 321 322 322 323 324 326 326 326 327 328 328 328 328 327 325 325 326 326 326 325 323 322 320 321 322 322 324 325 325 326 327
339 339 339 339 339 339 338 338 338 337 337 336 336 336 335 335 334 333 331 326 324 326 328 332 334 335 335 333 333 332 332 333 333 332 331 332 334 334 334 332 331 328 325 322 320 318 317 319 320 321 321 321 321 321 322 322 322 323 325 326 326 326 326 327 327 327 327 325 323 324 325 326 325 324 323 322 321 320 321 321 323 325 325 325 327
338 338 339 339 339 339 338 338 337 337 337 337 336 336 335 332 330 327 326 325 326 327 331 335 336 336 334 332 331 330 330 333 334 332 332 333 334 333 332 331 329 324 321 320 319 318 318 320 322 321 321 321 320 321 322 322 323 324 325 326 326 326 326 326 326 326 325 323 322 322 323 323 323 323 322 322 322 321 320 319 322 324 325 325 327
338 337 338 339 338 339 338 337 337 337 337 336 336 336 332 326 323 323 325 328 329 330 334 336 336 335 334 333 332 332 331 331 332 333 333 334 334 333 332 329 326 322 320 319 317 317 319 322 322 321 320 320 321 321 321 322 324 325 326 326 326 326 326 325 324 324 323 321 320 320 321 321 321 321 321 321 322 321 320 319 320 323 325 326 326
338 337 337 338 337 338 338 337 337 336 336 336 336 335 329 324 325 327 329 332 332 334 335 336 335 335 334 334 334 333 332 331 332 333 334 335 335 333 332 329 326 321 318 318 317 319 321 321 321 320 320 320 321 321 321 323 323 324 326 326 325 325 324 323 322 322 320 320 319 319 319 319 319 319 319 320 320 320 321 321 320 321 323 325 325
337 338 338 337 337 338 338 337 337 336 336 335 336 335 330 328 330 332 334 334 335 335 336 335 335 335 334 333 332 332 333 332 333 334 335 334 333 332 331 329 326 321 318 318 319 320 321 321 321 320 320 320 320 321 322 322 322 323 325 324 323 323 322 321 320 320 319 318 318 318 318 318 318 318 318 319 320 320 320 320 320 320 321 323 324
337 338 338 337 337 337 337 338 337 336 336 336 336 335 332 331 333 335 336 335 335 335 336 335 334 334 333 331 331 331 333 333 333 334 334 333 332 331 329 327 324 320 318 318 318 320 320 320 320 320 320 320 321 321 321 321 322 323 322 321 321 321 320 318 318 318 318 318 317 317 317 317 317 318 318 319 320 320 320 319 319 319 320 322 323
338 338 338 338 337 337 337 338 337 336 336 336 336 335 333 333 334 336 335 335 336 336 335 333 334 334 332 330 331 331 332 333 333 333 332 332 331 329 328 325 320 318 317 317 318 320 320 320 320 320 321 321 320 320 320 320 321 321 320 319 319 319 318 317 317 317 317 317 317 317 317 316 316 317 318 318 319 319 319 319 318 317 318 321 322
338 338 338 337 337 337 337 338 337 336 336 336 336 335 334 334 335 336 336 335 336 336 334 333 333 333 331 331 332 332 332 332 332 332 332 331 330 329 328 323 318 317 317 317 319 320 320 320 320 321 321 320 320 320 319 320 320 319 318 317 317 317 317 317 317 316 316 316 315 316 316 316 316 316 317 317 317 318 318 319 319 318 317 318 320
338 338 337 337 337 338 338 338 337 336 336 336 336 336 336 335 336 337 336 336 336 335 334 333 332 332 331 332 333 333 332 331 331 332 331 331 330 329 327 321 318 317 317 318 320 321 320 321 320 321 320 320 319 319 318 318 318 317 317 316 316 316 316 316 316 315 314 314 314 314 314 315 315 316 317 316 316 317 318 318 319 319 317 316 317
337 337 337 337 337 337 338 337 337 336 336 336 336 337 337 336 337 337 337 336 335 335 334 334 333 332 333 333 332 331 331 331 332 332 331 331 330 329 325 320 319 319 318 320 321 321 321 321 320 320 320 319 318 317 317 317 316 316 315 315 315 315 315 315 314 313 313 312 312 312 313 313 314 315 316 317 317 317 318 318 318 318 317 316 316
335 337 338 337 336 337 338 337 336 337 336 336 336 337 337 337 337 337 337 336 335 335 334 334 334 333 333 333 331 330 330 331 332 331 331 330 329 328 324 321 322 321 320 321 321 320 320 320 320 319 319 318 318 317 316 315 315 314 314 314 314 314 314 313 313 312 312 312 312 312 312 312 313 314 315 317 317 316 317 318 317 316 316 316 315
335 337 337 338 337 336 337 336 336 337 336 335 336 336 336 337 337 337 336 335 335 335 335 334 333 333 333 332 331 331 331 332 332 331 331 330 329 328 323 321 323 322 321 321 320 320 320 319 319 318 318 318 317 315 315 314 314 313 314 314 314 313 313 312 312 312 311 311 312 311 311 311 311 311 313 315 316 316 316 316 316 315 315 314 313
335 336 337 338 338 337 337 336 336 336 336 336 337 337 337 337 337 337 335 335 335 335 335 334 334 333 333 332 332 332 332 332 331 331 330 330 329 326 322 322 322 321 320 320 320 319 319 318 318 318 317 317 316 314 314 314 313 314 314 313 313 312 312 312 311 311 311 311 311 311 311 310 310 309 310 311 313 315 315 315 315 314 313 313 312
335 337 337 337 338 337 337 336 336 336 336 336 337 337 337 336 336 336 335 334 334 334 335 334 334 333 333 333 332 332 332 331 331 330 330 330 329 325 324 322 321 320 320 320 320 319 319 318 317 317 316 316 315 315 314 314 314 314 313 312 311 311 311 311 311 311 311 311 310 309 309 308 307 306 305 306 308 311 313 314 313 312 313 312 310
337 338 337 337 337 337 337 337 336 336 336 336 336 336 336 336 336 336 334 334 334 334 335 334 334 333 332 332 332 331 331 330 330 329 329 329 328 324 322 321 320 320 320 320 320 320 319 318 317 316 315 315 315 315 315 314 314 313 313 311 309 309 309 310 310 309 309 308 307 306 305 304 303 302 301 300 301 304 307 308 308 309 309 308 305
338 338 337 337 336 337 337 337 336 336 335 336 336 335 335 335 336 336 334 333 334 334 334 334 333 333 332 331 330 330 330 329 329 329 329 329 325 321 320 320 320 319 319 319 319 319 319 318 317 315 315 315 315 315 315 314 314 313 312 310 307 305 306 306 305 304 304 304 303 303 301 300 300 299 298 297 297 298 299 301 303 304 304 302 301
338 338 337 337 337 337 336 336 337 336 334 335 336 335 334 336 336 335 334 333 334 334 333 333 333 332 331 330 329 329 329 328 328 329 328 325 321 319 320 320 319 319 319 319 319 319 319 318 317 315 315 315 315 315 315 314 314 313 312 309 305 301 301 301 300 299 300 300 300 300 299 299 298 298 298 297 297 297 297 299 300 300 300 299 299
338 338 337 337 337 337 336 336 337 336 334 336 336 334 335 336 336 335 334 333 333 334 333 333 332 332 331 329 328 328 328 328 328 327 324 321 319 320 320 320 320 319 319 319 319 318 318 318 317 315 315 315 315 315 315 314 314 313 311 307 302 299 298 298 297 297 298 299 298 298 299 299 298 298 298 298 297 297 298 299 299 299 299 299 299
339 337 337 337 336 336 336 336 336 336 336 336 336 335 335 336 336 335 334 333 333 333 333 333 332 331 330 328 328 327 326 327 326 323 320 319 320 320 319 320 319 319 319 319 318 318 318 318 317 316 315 315 315 314 314 314 314 313 310 305 300 298 297 297 297 297 298 299 298 299 300 300 299 299 299 299 298 298 299 299 299 299 299 299 299
338 337 337 336 335 336 336 336 336 336 336 336 335 335 335 335 335 335 333 333 333 333 332 332 331 330 328 327 327 326 327 327 324 320 319 320 320 319 319 320 319 319 319 318 318 318 318 317 316 316 316 315 315 314 313 313 312 312 309 304 299 297 297 296 296 297 298 299 299 299 300 301 300 300 300 300 299 299 299 300 300 300 300 299 299
338 337 336 336 337 337 337 337 337 337 336 335 335 335 335 335 334 334 333 333 333 332 332 332 330 329 327 327 326 326 327 326 321 319 319 319 319 319 319 319 319 319 319 318 318 317 316 316 316 316 316 315 315 314 313 312 311 311 308 302 298 297 297 296 296 297 299 300 300 300 300 301 301 302 302 301 300 300 300 300 300 300 300 299 299
337 337 336 337 337 337 338 337 337 336 336 335 335 335 335 335 334 333 332 332 332 332 332 331 329 328 327 327 326 326 326 323 319 319 319 319 319 319 319 319 319 318 318 318 318 316 316 316 315 315 315 315 315 314 312 309 309 308 304 299 297 297 297 296 296 297 299 301 302 302 301 301 302 303 302 302 301 301 300 301 301 301 300 300 299
336 336 336 336 337 337 337 337 337 336 335 335 335 334 334 334 333 332 332 332 332 332 331 330 329 328 327 325 325 324 323 320 318 319 319 318 319 318 318 318 318 318 318 318 317 316 316 315 314 314 314 314 315 313 309 306 306 303 299 297 296 296 296 296 296 297 299 301 303 303 303 302 302 303 303 303 302 301 301 301 301 301 301 300 299
335 336 335 334 336 337 337 337 336 335 335 335 335 334 333 333 333 332 332 331 332 331 330 329 328 327 325 323 322 321 320 318 318 319 319 319 319 318 318 318 318 318 318 317 317 316 315 314 313 312 313 313 313 309 304 302 302 299 297 297 296 296 296 295 296 297 300 303 304 304 303 302 302 303 303 303 302 301 301 301 301 301 301 300 299
335 333 332 332 335 336 336 336 335 334 334 334 334 333 333 333 333 332 331 331 331 330 329 328 327 325 323 321 320 319 318 318 318 318 318 318 318 318 318 318 318 318 317 316 316 315 314 313 312 311 311 311 308 302 299 298 298 296 296 296 296 296 295 295 296 297 300 303 304 304 303 302 302 303 303 303 303 302 301 301 301 301 301 300 300
333 330 330 332 334 336 336 336 335 334 333 333 333 333 333 332 332 331 331 331 330 329 328 327 325 323 321 319 319 318 318 318 318 317 317 318 317 317 317 317 317 317 316 315 314 313 312 311 309 308 307 305 301 298 297 297 296 296 296 296 295 296 295 295 296 297 299 303 304 304 303 302 302 302 303 303 303 302 302 301 301 301 301 301 300
332 329 330 332 334 335 336 335 334 333 333 333 333 333 332 332 332 331 331 330 329 328 327 325 323 321 319 319 318 317 317 318 318 317 317 317 316 316 316 316 316 315 314 313 313 312 310 308 305 303 302 299 297 296 296 296 296 296 296 295 295 296 295 296 295 296 298 301 303 304 304 303 302 302 302 302 303 303 302 301 301 301 301 301 300
333 332 332 332 333 334 335 334 334 333 333 332 332 332 332 332 332 331 330 329 328 327 325 323 321 320 319 318 317 317 317 318 318 317 317 317 316 316 316 316 315 315 313 313 311 308 305 303 301 300 298 297 296 296 296 296 296 296 295 295 296 295 296 296 295 295 296 298 300 302 302 303 302 302 302 302 302 302 302 301 301 301 301 301 301
334 333 331 331 332 333 334 334 334 333 333 332 332 332 332 332 331 331 329 328 327 325 323 321 320 318 318 317 317 317 317 317 317 317 317 317 316 316 316 315 315 314 313 311 307 304 301 300 298 297 297 296 296 296 295 295 296 295 295 295 295 296 296 296 295 295 295 296 297 298 299 301 302 302 302 302 302 302 302 301 301 301 301 301 301
334 333 331 331 331 332 333 334 333 333 333 332 331 331 332 331 331 330 328 327 326 324 322 320 318 318 317 317 316 317 317 316 316 316 316 316 316 316 315 315 314 313 311 307 303 300 299 298 297 297 296 296 296 295 295 295 295 295 295 295 295 295 295 295 295 295 295 295 295 295 296 298 301 302 302 301 301 302 301 301 301 301 301 301 301
334 333 333 332 331 331 332 333 333 333 332 331 330 331 332 331 330 329 327 326 325 324 322 320 318 318 317 317 316 316 316 316 316 316 316 316 316 316 315 314 314 312 307 302 300 298 297 297 296 296 296 296 295 295 295 295 295 295 295 295 295 296 295 295 295 295 295 295 295 295 296 297 300 301 301 301 301 301 301 301 301 301 301 301 301
333 334 334 334 333 332 331 332 333 332 331 330 330 331 331 330 329 328 326 325 325 324 322 319 317 317 317 316 316 316 316 316 316 316 316 316 315 315 314 314 313 309 303 300 298 297 296 296 296 296 296 295 295 295 295 295 295 295 295 295 295 295 295 295 295 295 295 295 295 296 296 297 299 300 300 300 301 301 301 301 301 301 300 300 300
332 332 333 334 333 332 331 331 333 332 331 330 330 330 329 328 328 327 325 325 326 324 321 318 317 317 316 316 316 316 316 316 315 315 315 315 315 315 314 314 312 306 301 298 297 296 296 296 296 296 296 295 295 295 296 296 296 295 295 295 295 295 295 295 295 295 295 294 295 295 296 296 298 299 299 300 300 301 301 301 301 300 300 300 300
332 332 332 333 332 331 331 331 331 331 330 330 330 329 328 327 327 326 326 326 326 325 322 319 318 317 316 316 316 316 316 316 315 315 315 315 315 314 313 312 309 303 299 297 297 296 296 296 295 295 296 296 296 297 299 299 298 296 295 294 295 295 295 295 295 295 294 294 295 295 295 296 297 297 298 299 300 301 301 301 301 300 299 300 300
332 333 332 332 332 331 330 330 330 330 330 330 329 328 327 327 326 326 327 327 326 324 321 320 318 316 316 316 316 316 316 316 316 315 315 315 314 313 313 311 306 300 298 297 296 296 296 296 295 295 297 298 298 300 302 302 300 298 296 295 294 295 295 295 295 294 294 294 295 295 295 295 296 296 296 297 298 300 300 300 300 300 300 299 300
332 332 332 332 331 331 330 329 330 330 330 330 329 327 326 326 326 327 326 325 324 323 320 318 317 316 316 316 316 316 316 316 315 315 315 314 313 313 312 308 302 298 297 296 296 295 295 295 295 296 298 300 301 303 304 303 301 300 297 295 294 294 295 295 294 294 294 294 295 295 295 295 295 295 295 296 297 298 299 300 300 300 300 299 299
332 332 332 332 331 330 330 329 329 329 329 330 330 328 327 327 327 327 326 325 324 322 319 317 316 316 316 316 316 316 316 316 315 315 314 313 312 312 309 304 300 297 296 296 295 295 295 295 295 296 298 300 302 303 303 303 301 300 297 295 294 294 294 294 294 294 294 295 295 295 295 296 295 295 295 295 295 296 298 299 300 300 300 299 299
332 331 331 331 331 330 329 328 328 328 329 329 330 329 329 328 328 327 326 325 323 320 318 316 316 316 316 316 316 316 315 315 315 314 313 312 312 311 307 302 298 297 296 295 295 295 295 295 295 296 298 300 302 302 302 302 302 301 298 296 294 294 294 294 294 294 295 295 295 295 296 296 295 295 294 294 294 295 296 298 299 299 299 299 299
332 331 331 331 331 330 329 328 327 328 328 328 329 329 329 328 328 327 325 323 320 318 317 316 316 316 316 316 316 316 315 315 314 313 313 312 311 310 305 300 298 296 295 295 295 295 295 295 295 295 297 299 300 302 303 303 302 301 299 295 294 294 294 294 294 294 295 295 296 296 296 296 295 295 294 294 294 294 294 295 296 297 298 298 298
332 332 331 330 331 331 329 327 327 327 327 326 326 327 327 326 325 324 322 320 318 317 317 316 316 317 316 316 316 315 315 314 314 313 312 311 311 309 304 299 297 296 295 295 295 295 295 295 295 295 297 298 299 300 302 302 302 300 297 295 294 294 294 294 294 294 295 296 296 296 296 296 295 295 294 294 294 294 294 294 294 295 295 295 295
332 332 331 330 329 328 327 326 325 325 325 324 325 325 325 323 321 320 319 318 317 317 317 317 317 316 316 316 315 315 314 314 313 313 312 312 311 307 301 298 296 295 295 295 295 295 295 295 295 295 295 296 296 297 299 299 299 297 295 294 294 294 294 294 294 295 295 296 296 296 296 296 295 294 294 293 293 294 293 293 294 294 294 294 294
331 331 331 329 326 325 325 326 324 324 324 324 324 323 322 321 319 318 318 317 317 317 317 317 316 316 316 315 315 315 314 313 313 312 311 311 309 303 299 297 295 295 295 295 295 295 295 295 295 295 295 295 295 295 295 295 295 295 294 294 294 294 294 294 294 294 295 295 296 296 296 295 295 294 294 293 293 293 293 293 293 294 294 294 294
330 330 330 328 326 326 327 326 325 324 324 323 322 321 319 319 318 317 317 317 316 316 317 316 316 316 315 315 315 314 314 313 312 311 311 309 305 300 299 298 296 295 295 295 295 295 295 295 296 295 295 295 294 294 294 294 294 294 294 294 294 293 294 294 294 294 294 294 295 295 295 295 295 294 293 293 293 293 293 293 293 293 293 294 294
329 329 328 327 327 327 327 326 325 324 323 321 320 319 318 318 317 317 317 316 316 316 316 316 316 315 315 315 314 314 313 312 311 310 309 306 302 301 301 300 296 295 295 295 295 296 296 296 296 296 295 295 295 294 294 294 294 294 294 293 293 293 294 295 294 294 294 293 293 294 294 294 294 294 293 293 293 293 293 293 293 293 293 293 293
328 327 326 326 326 326 326 325 323 323 321 320 318 318 317 317 316 316 316 316 316 316 316 316 316 315 315 314 313 313 312 312 311 309 306 303 303 304 303 299 295 294 295 295 295 295 295 295 295 295 295 295 295 294 294 294 294 293 293 294 294 294 294 295 294 294 294 293 293 293 293 293 293 293 293 293 292 292 292 292 293 293 293 293 293
328 326 325 325 325 324 324 323 322 321 320 319 318 317 316 316 316 316 316 316 315 315 315 315 315 315 315 314 313 313 312 311 311 309 305 303 304 303 300 297 296 296 297 297 297 297 295 295 295 295 294 295 294 294 294 294 294 294 294 294 294 294 294 294 294 294 294 294 293 293 292 293 293 293 293 293 292 292 292 292 292 292 292 292 292
Wind_Speed
30 30 27 27 28 29 30 32 34 35 34 34 34 32 31 35 37 35 33 32 32 30 28 26 26 24 22 20 20 19 18 18 16 15 13 12 11 11 12 12 11 10 9 8 8 8 10 12 12 13 12 11 8 6 6 6 7 7 6 6 5 6 8 10 11 12 13 12 10 10 11 8 8 13 12 10 13 14 14 16 16 16 15 15 15
30 30 30 29 30 32 32 33 35 36 38 38 36 34 34 36 37 36 34 33 32 30 29 27 25 23 21 20 20 19 19 17 17 16 14 14 14 12 12 12 10 9 9 9 9 10 11 11 11 11 9 7 6 5 4 5 5 5 4 4 5 7 9 11 13 13 15 15 15 15 14 12 10 11 14 12 12 14 15 17 17 17 16 15 14
33 32 32 30 31 34 34 34 36 38 39 40 38 37 37 37 36 36 35 33 32 30 29 27 23 21 19 19 19 19 18 17 17 17 16 15 14 12 11 10 9 9 10 10 9 9 9 9 9 8 6 4 4 3 3 3 4 5 5 4 5 7 8 10 13 14 16 15 16 17 17 18 15 15 17 14 13 15 15 17 18 17 16 14 13
34 34 33 30 32 37 36 36 39 40 39 38 38 38 37 37 36 36 35 33 31 30 30 26 23 21 19 19 19 19 19 18 18 18 17 15 14 12 10 8 9 10 11 11 9 8 7 6 6 4 3 2 1 1 2 3 4 5 6 6 6 6 7 10 12 13 15 15 16 16 16 18 17 20 23 17 15 16 15 16 17 16 16 13 13
36 34 34 33 36 39 36 37 41 41 39 38 37 37 36 35 35 35 34 32 31 31 29 26 24 23 21 21 21 20 20 19 19 18 16 14 13 11 9 8 10 11 11 10 8 7 6 4 2 1 0 1 1 2 3 3 5 6 6 6 7 7 8 9 10 11 13 14 15 13 11 13 15 21 23 18 17 17 16 17 16 16 15 14 14
35 34 37 38 39 39 38 40 43 41 40 39 37 35 33 32 32 33 33 32 31 30 27 25 24 24 24 24 24 23 22 21 20 18 15 14 12 9 8 8 10 10 9 8 8 7 4 1 1 1 1 1 1 2 4 4 5 5 5 6 7 8 8 7 9 11 10 11 12 10 7 7 12 18 19 18 19 18 16 17 15 15 14 13 15
35 34 38 41 41 40 42 44 44 42 40 38 36 33 30 29 30 31 32 31 30 28 26 24 23 23 24 24 24 24 24 22 19 16 15 14 11 8 7 7 8 8 8 8 7 5 2 1 1 1 1 1 1 2 4 5 5 5 5 6 7 9 10 9 10 10 9 10 10 8 5 5 8 11 14 17 19 19 18 16 14 15 14 14 16
36 36 37 40 41 42 44 45 43 41 39 37 35 31 28 29 30 31 32 30 28 27 25 24 23 23 24 23 23 23 23 21 19 17 15 12 9 7 7 7 7 8 9 8 5 2 1 2 1 1 1 1 2 3 4 4 4 3 4 6 8 9 11 11 12 10 9 8 8 7 6 5 6 8 10 12 15 19 20 18 14 14 14 14 17
37 39 37 37 40 43 44 44 42 40 38 35 33 30 28 30 30 30 30 29 27 27 25 24 23 23 24 23 23 23 21 20 19 18 15 11 9 8 7 7 7 7 8 6 2 1 1 1 2 1 1 1 3 3 3 3 4 4 4 7 9 10 10 11 11 10 9 7 6 6 6 7 8 9 9 10 13 16 19 21 19 14 14 14 16
34 38 39 37 39 40 39 39 40 38 37 35 32 30 29 29 29 29 28 27 26 26 24 24 23 23 24 23 23 23 22 21 19 16 13 11 10 9 8 7 6 7 6 4 1 2 2 2 2 2 0 1 3 3 3 4 6 6 6 7 9 9 9 10 9 8 8 8 8 7 7 8 9 10 11 12 14 15 15 19 20 18 17 15 16
33 34 35 34 35 35 33 33 35 37 36 35 32 30 29 29 28 28 27 26 26 25 24 24 23 24 24 23 23 23 23 21 19 16 13 11 10 9 7 6 5 5 4 2 2 2 3 3 3 2 1 2 3 2 3 5 5 7 7 7 7 7 7 8 7 7 8 8 8 8 9 9 9 10 11 12 13 13 14 16 18 19 17 13 13
34 31 30 33 35 34 33 31 33 37 37 34 32 30 29 29 28 27 27 26 26 25 25 24 23 24 23 22 22 22 22 20 17 15 13 11 11 9 7 7 6 4 3 3 3 3 4 4 3 2 2 2 2 2 3 4 5 6 6 7 7 6 6 6 6 7 7 7 8 9 9 9 8 9 9 9 10 10 12 15 17 19 16 12 11
36 32 31 34 37 37 35 34 33 36 35 33 32 30 29 30 29 28 28 27 26 25 24 24 24 24 22 21 22 21 20 18 16 14 13 12 11 10 9 8 6 3 2 2 3 4 4 4 3 3 2 1 0 2 4 5 5 5 5 7 6 6 6 6 6 6 7 7 8 8 8 9 9 8 7 8 8 8 10 12 14 17 17 13 11
36 34 33 35 38 39 38 36 34 34 33 32 32 31 30 30 29 28 28 28 26 25 24 24 25 23 22 22 22 22 20 18 16 15 13 12 11 10 9 7 4 2 0 2 4 4 5 5 4 3 2 1 2 3 5 5 4 5 5 6 6 6 6 6 6 7 7 7 8 8 8 9 8 7 7 8 8 8 9 10 12 15 16 14 12
35 34 34 34 37 41 40 38 36 34 32 31 31 32 31 29 29 29 29 27 26 25 25 25 24 23 23 24 24 22 20 18 17 15 13 11 10 10 9 6 2 1 2 3 5 7 6 5 4 3 2 2 3 4 4 4 4 5 5 5 5 6 6 6 6 7 7 8 8 9 9 9 8 7 6 7 8 8 8 8 10 13 16 17 15
34 32 32 32 36 40 39 38 36 34 32 31 32 33 32 30 29 29 28 27 27 26 26 26 25 25 25 24 23 21 19 17 16 15 13 12 11 10 8 5 2 2 1 6 8 9 7 5 3 2 3 3 3 4 3 3 4 5 5 4 5 6 5 5 7 7 8 9 9 9 10 10 10 9 7 6 6 6 6 7 9 11 14 16 18
33 32 32 32 34 36 37 36 36 35 32 30 31 32 31 30 29 29 28 28 28 28 27 26 26 26 25 23 21 19 18 17 16 15 14 13 12 11 8 5 3 2 6 9 10 9 7 4 3 3 4 3 4 5 5 4 4 5 4 4 5 6 5 4 6 7 8 9 9 9 10 11 11 10 8 6 5 5 5 7 8 9 10 12 16
32 31 32 32 32 34 35 34 34 34 33 31 32 32 31 30 29 30 30 30 30 28 27 26 25 25 23 21 20 19 18 17 17 16 15 14 13 11 8 6 5 7 10 10 9 8 6 5 4 4 3 3 5 7 6 5 4 3 4 4 6 6 4 3 5 7 8 8 8 9 9 10 11 11 10 8 5 5 5 6 7 8 9 11 14
30 30 31 32 32 33 33 33 33 33 33 32 32 31 31 29 28 30 31 31 30 28 27 26 24 23 22 21 20 19 19 18 17 16 16 16 14 10 8 8 10 12 11 9 8 7 6 5 5 5 5 5 7 7 5 4 4 3 5 6 8 7 4 3 5 6 7 8 8 9 10 11 11 11 10 9 7 6 6 6 7 8 9 11 14
31 31 32 33 34 33 33 34 33 32 32 32 32 31 30 29 29 31 31 31 30 28 27 26 24 23 22 21 20 20 19 19 18 18 17 16 13 9 10 12 14 13 11 10 8 7 6 4 5 7 8 8 7 6 4 4 4 4 6 8 8 7 5 5 5 6 7 8 8 9 10 11 12 11 11 11 10 8 7 7 8 9 10 13 14
32 32 34 34 35 33 32 32 32 32 32 32 33 32 30 30 31 32 32 31 30 28 27 25 24 23 21 21 20 20 21 20 19 19 18 15 12 12 15 16 15 13 12 11 9 8 7 4 5 7 7 7 7 5 4 4 4 5 7 8 8 6 6 7 6 6 7 8 9 10 11 13 13 13 13 13 13 12 10 10 11 13 15 17 18
34 35 36 35 35 33 33 33 34 34 33 32 34 33 31 32 34 34 33 31 30 28 27 25 24 22 21 20 20 21 21 20 20 19 16 13 15 18 19 17 16 14 13 12 10 10 8 4 4 5 6 6 5 4 3 3 4 5 6 7 7 6 7 8 7 8 9 9 10 11 13 15 15 17 19 19 19 17 15 15 17 20 22 23 23
34 37 37 36 36 35 35 36 37 35 33 35 36 34 33 36 37 35 33 31 30 28 27 25 23 22 21 21 21 21 20 19 19 17 15 17 20 21 19 18 17 15 14 12 10 9 7 5 4 5 5 5 4 3 2 2 3 4 5 5 7 7 8 8 9 10 11 10 11 13 15 17 18 20 23 25 25 24 22 22 23 25 26 28 28
34 38 39 37 36 35 35 36 36 35 36 37 37 34 35 38 38 36 33 31 29 28 27 25 23 22 22 22 22 21 20 19 18 16 19 22 23 21 20 18 17 16 15 13 11 9 7 6 5 5 5 4 3 1 1 2 3 3 4 5 7 8 9 9 10 11 12 12 13 15 17 18 19 22 26 28 29 28 27 27 27 27 29 30 30
37 40 40 38 36 36 36 37 37 37 38 38 36 36 37 39 38 35 33 31 29 28 26 25 24 23 23 23 22 20 20 19 17 19 23 25 23 22 20 18 17 17 16 14 12 9 8 7 7 6 4 3 2 1 2 3 3 3 3 5 6 8 9 9 10 11 13 14 15 16 18 18 19 23 27 29 29 29 28 27 27 27 29 30 30
40 42 41 39 38 38 38 38 39 39 38 37 36 37 38 38 37 35 33 31 30 28 26 25 24 23 23 22 21 21 20 17 18 24 26 25 24 23 21 19 18 17 16 14 12 10 9 8 7 6 4 3 3 2 3 5 5 4 3 3 5 7 8 8 9 11 13 15 17 17 18 18 19 23 26 28 28 28 27 27 27 27 27 28 30
44 44 42 39 38 38 38 38 39 39 38 37 37 38 39 38 36 35 33 31 30 28 27 25 24 23 23 22 21 21 20 16 21 27 27 25 25 22 21 20 19 17 16 14 12 11 10 8 8 7 6 6 6 5 5 6 5 4 2 3 5 7 9 9 9 11 14 16 17 17 17 18 18 20 23 26 27 27 27 26 27 26 26 27 30
44 45 42 38 36 38 40 40 40 39 39 39 39 40 40 38 37 35 33 32 30 29 27 25 24 23 23 22 22 21 18 18 25 29 27 25 24 22 21 20 18 17 15 14 13 12 11 10 9 8 8 8 8 6 6 6 5 3 1 4 6 8 10 10 10 11 14 15 16 16 16 17 17 18 20 22 25 26 26 26 26 26 26 27 29
43 43 38 33 34 38 42 41 40 40 41 41 41 41 40 39 37 36 34 32 30 28 26 24 24 23 23 22 22 20 18 22 27 29 28 25 24 22 22 20 18 17 16 14 13 12 11 11 10 9 10 9 8 7 5 4 3 1 2 4 7 9 10 10 10 11 13 15 14 14 15 16 16 17 17 19 22 24 25 25 25 25 25 25 27
37 32 30 30 34 39 42 41 41 42 42 43 43 42 41 40 38 36 34 32 29 27 25 24 24 23 22 22 21 19 20 24 26 27 27 25 23 22 21 19 18 17 16 14 13 13 12 11 10 10 10 9 8 6 6 5 4 3 4 5 8 10 11 11 11 12 14 14 13 13 14 15 15 15 16 17 19 21 23 24 23 23 24 24 26
27 24 28 34 39 41 41 41 41 43 43 44 44 43 42 40 37 35 33 31 28 26 25 25 24 22 21 21 20 19 23 26 25 26 26 24 23 22 20 19 17 16 15 15 14 14 13 12 11 11 10 9 8 8 7 6 6 6 6 7 9 10 11 12 11 12 13 13 12 11 12 13 14 14 14 15 16 18 20 22 22 21 22 23 24
28 30 35 40 43 43 43 42 42 44 44 44 45 44 42 40 38 36 34 31 28 26 25 24 23 21 22 22 20 21 27 28 26 26 25 24 22 21 19 18 16 15 16 15 15 14 13 12 11 10 10 9 9 9 8 7 7 7 7 8 9 11 11 12 12 12 12 12 11 10 10 10 11 12 13 13 14 15 17 19 20 19 20 21 23
35 37 39 42 45 46 46 44 43 44 44 44 45 44 42 41 39 36 34 30 27 26 24 23 22 22 24 23 20 25 31 28 26 25 24 23 22 20 19 17 16 16 16 16 15 15 14 13 11 10 10 10 10 9 9 8 9 9 9 9 10 11 11 12 12 12 11 10 9 8 8 8 9 10 12 13 13 13 15 17 18 18 19 20 22
39 40 40 43 45 46 46 45 44 44 44 44 44 43 41 40 38 35 32 29 27 25 24 23 23 24 25 22 22 30 32 27 25 24 23 23 22 20 18 16 16 17 18 17 16 15 14 13 12 11 11 11 10 11 10 10 10 10 9 9 10 11 11 12 12 11 11 10 9 8 7 8 9 10 11 12 12 12 13 15 17 17 18 19 20
41 41 42 43 45 45 45 45 44 43 43 43 43 42 41 40 37 35 31 28 27 24 23 23 23 25 24 21 24 31 31 27 26 25 24 23 22 21 19 16 16 18 18 18 17 16 15 14 12 11 11 11 11 12 11 11 10 10 10 10 10 11 11 12 12 11 11 11 10 9 9 9 9 10 11 12 11 11 12 14 15 16 16 18 19
42 43 43 43 44 45 45 46 45 44 44 44 43 42 41 39 36 33 30 28 25 24 23 23 23 23 22 20 26 33 31 29 28 27 26 25 24 22 20 17 17 18 19 19 18 16 15 14 13 12 11 12 13 13 12 11 10 10 10 10 10 11 11 11 11 11 10 11 11 10 10 10 10 11 11 11 11 10 11 13 14 14 15 16 18
41 41 40 40 40 42 44 46 46 45 44 44 42 41 41 39 35 32 30 27 25 23 23 23 22 21 20 22 31 35 32 30 30 28 28 27 25 23 21 19 18 21 21 20 18 17 15 14 14 13 12 13 15 15 13 12 11 10 9 9 10 10 11 11 11 11 10 10 11 10 10 10 10 11 11 10 10 10 10 11 11 12 14 15 17
39 39 37 37 39 40 43 46 47 46 44 43 42 42 40 36 34 32 30 27 25 23 20 20 20 20 20 27 34 34 32 32 31 29 29 27 25 24 21 19 20 22 22 20 18 17 17 15 14 14 13 14 16 16 14 12 11 10 9 9 10 10 11 11 11 11 10 9 10 10 9 9 9 10 9 9 9 9 9 9 9 10 13 15 15
37 38 36 36 37 39 42 45 46 46 44 42 42 40 36 34 34 33 30 27 26 22 18 18 20 20 24 32 34 32 31 32 30 29 28 27 25 24 21 19 20 21 21 20 18 17 18 17 16 15 15 15 16 16 14 11 11 10 9 9 9 9 10 11 11 11 10 9 9 9 8 8 8 8 8 8 9 8 8 8 7 8 12 15 13
35 35 34 36 38 40 43 44 44 45 44 41 40 38 36 36 36 32 28 26 23 20 18 19 20 22 28 34 34 31 32 32 30 29 28 26 25 23 21 20 21 21 20 18 17 17 18 18 18 16 16 15 15 14 12 9 8 8 9 9 9 8 10 11 11 11 11 10 10 9 9 8 7 7 7 7 7 7 7 7 5 6 10 12 10
33 33 34 38 40 42 43 43 44 44 42 40 39 38 37 36 33 28 25 22 19 18 19 21 23 26 32 35 33 31 32 31 29 28 27 26 24 22 21 22 22 21 19 18 18 18 18 19 19 17 16 15 14 13 12 10 7 6 7 9 9 8 9 10 11 11 11 11 11 10 10 9 8 7 7 7 7 6 6 5 4 6 7 7 6
32 33 36 38 41 42 43 43 44 44 42 41 40 39 37 34 31 27 23 21 20 21 22 25 28 31 35 35 32 31 31 31 29 28 27 26 24 22 22 22 21 20 19 19 19 19 19 20 20 19 17 16 14 13 12 11 8 5 6 8 9 9 9 9 10 11 11 11 11 10 10 8 7 7 7 7 7 5 4 4 4 5 4 2 3
32 35 37 38 39 42 43 44 44 44 43 42 40 39 37 34 31 29 25 23 24 25 25 29 32 34 35 34 32 32 32 31 29 28 26 25 23 22 22 22 21 20 20 20 21 21 21 21 21 20 19 18 17 15 13 12 10 6 5 8 10 11 11 10 11 12 13 12 11 10 9 8 7 6 7 7 7 6 5 4 4 3 2 1 1
31 34 37 37 38 42 43 43 43 44 44 43 41 39 36 34 33 31 26 25 26 27 30 33 34 35 34 33 33 34 33 31 29 28 26 25 24 23 22 21 20 20 21 22 22 22 22 22 22 22 21 20 19 17 15 13 12 9 8 9 12 13 13 12 12 12 12 12 11 9 9 8 7 6 6 7 7 7 7 6 4 3 2 1 1
30 33 35 35 37 40 42 42 43 43 42 40 38 35 33 33 32 28 25 26 28 31 33 35 35 34 34 34 36 35 33 30 28 28 26 25 25 24 23 22 21 21 22 23 23 23 23 23 23 23 22 21 20 19 17 16 15 12 11 12 13 13 13 12 11 11 12 11 9 9 8 7 7 6 7 7 7 8 8 8 7 6 4 3 4
30 33 34 36 38 39 41 41 39 37 34 32 31 30 30 29 26 24 25 28 31 33 34 34 35 35 35 37 37 35 32 29 28 27 26 25 25 25 24 22 22 22 23 23 24 24 24 23 23 23 23 22 21 20 19 19 17 15 15 14 14 12 12 11 11 11 11 10 9 8 7 6 5 5 6 7 8 8 8 8 8 7 7 6 6
29 31 34 37 37 36 36 35 33 31 30 29 29 28 26 23 23 25 29 31 33 34 35 35 36 36 38 38 37 34 32 30 29 28 26 25 25 25 24 22 23 24 24 24 25 25 25 24 24 23 23 22 21 21 21 20 19 18 16 15 13 12 12 11 11 10 10 9 8 7 6 6 5 4 6 7 7 7 7 7 8 8 7 7 7
28 30 33 36 35 33 32 33 32 31 30 30 29 26 22 21 24 30 33 35 37 39 38 37 38 38 39 38 36 33 32 30 29 28 26 25 25 25 22 21 22 23 24 25 26 25 25 25 24 23 23 22 22 21 21 20 19 17 15 15 14 13 12 11 10 10 9 8 7 6 5 5 5 4 4 5 5 5 6 7 7 7 7 7 7
29 31 33 35 36 34 32 32 32 30 29 29 26 23 22 23 28 34 37 39 40 39 38 38 40 40 39 38 35 33 31 31 30 28 26 26 25 23 19 19 20 21 21 22 24 24 24 23 21 20 20 20 21 21 20 18 16 15 14 14 14 13 12 11 10 9 8 7 7 6 6 6 5 4 3 3 4 4 4 5 6 7 7 6 6
29 33 35 35 34 32 31 31 30 29 29 27 24 23 24 27 32 37 39 39 38 38 39 40 41 41 39 37 35 33 32 31 30 29 28 28 26 22 19 19 20 20 19 19 19 20 20 19 18 16 15 14 15 17 17 16 15 15 15 14 13 13 12 11 10 9 8 7 7 7 6 6 5 4 3 2 3 3 3 3 4 5 5 5 5
27 30 32 32 31 30 30 30 30 29 29 28 26 26 27 29 34 39 39 37 36 38 41 41 41 40 39 36 34 32 31 30 29 29 30 30 27 24 22 21 21 20 19 17 15 15 16 16 15 15 16 14 14 15 16 15 15 15 15 14 14 13 13 12 11 10 8 7 6 6 6 5 4 4 3 2 2 3 3 2 2 3 3 4 4
Wind_Direction
169 171 176 180 183 183 183 182 180 180 184 185 185 182 182 185 187 189 191 194 195 195 199 196 188 184 182 182 184 185 185 187 189 187 185 188 195 200 202 205 209 214 226 247 267 278 282 283 286 291 296 303 305 304 305 306 312 322 338 344 348 351 343 335 337 340 340 343 358 6 9 16 21 20 20 16 14 12 10 7 2 356 350 345 340
162 165 172 178 183 183 182 182 180 182 182 182 183 181 182 186 188 190 193 196 197 197 197 192 185 180 178 179 181 183 185 185 183 182 189 197 202 205 203 204 210 222 241 263 281 288 288 285 288 291 291 293 286 284 292 296 310 326 343 354 357 356 354 350 345 346 351 355 354 351 355 1 5 15 18 14 11 10 9 9 9 4 359 354 350
161 164 170 179 184 181 180 182 183 184 181 180 182 182 183 186 188 192 195 197 198 197 195 189 185 182 180 181 182 184 183 181 181 185 194 201 204 205 204 207 219 242 260 276 289 293 288 279 280 283 278 274 270 278 299 308 322 337 346 355 357 358 7 7 0 356 358 358 355 354 355 353 351 355 3 7 6 6 6 6 8 8 6 1 357
162 167 171 178 181 177 178 180 182 184 184 182 184 185 184 185 189 193 197 200 198 194 192 188 185 183 184 185 184 185 182 180 184 189 194 200 204 205 211 226 247 266 277 282 285 282 277 266 267 278 269 265 282 330 344 333 338 340 344 350 346 353 16 18 11 4 1 2 2 2 355 353 350 342 344 351 358 2 4 4 8 11 9 4 1
165 170 173 176 177 176 178 181 182 185 187 187 187 186 186 187 191 196 200 200 194 189 188 187 186 184 183 184 183 185 184 184 188 189 191 200 205 208 221 244 259 269 275 275 273 268 264 259 273 313 290 311 29 21 357 341 338 335 339 346 342 353 18 20 14 11 9 9 9 9 2 354 341 330 333 340 347 356 2 4 12 16 12 9 8
170 172 173 175 177 177 180 183 184 186 188 187 187 187 189 192 195 198 198 193 187 186 186 185 186 184 183 183 183 186 187 188 191 192 195 201 205 212 228 246 257 262 262 261 261 259 255 257 355 24 88 62 41 357 341 328 325 333 339 340 340 351 6 14 17 16 10 5 6 12 9 345 326 326 333 336 338 349 358 1 15 24 18 16 16
173 174 174 177 180 180 181 183 184 186 187 187 187 188 192 194 194 193 189 186 184 185 186 186 187 185 185 186 187 190 191 190 190 194 201 205 208 216 231 247 253 252 254 256 252 247 234 110 76 74 96 42 344 323 321 316 322 339 338 331 339 351 358 3 10 10 0 359 4 4 356 333 326 337 346 343 339 343 348 354 17 32 25 23 23
173 174 177 180 181 180 181 183 184 185 186 186 187 189 190 189 187 185 184 184 184 185 186 187 187 186 187 190 192 195 197 194 191 194 201 204 210 219 237 250 248 248 252 250 237 210 122 108 113 81 49 327 302 303 307 306 307 319 327 332 345 354 356 357 359 359 359 6 10 6 4 360 354 0 4 359 350 345 344 347 8 35 36 31 27
174 175 179 182 182 181 182 184 185 186 187 187 187 187 187 186 185 184 184 184 184 185 187 186 186 189 190 192 194 194 196 198 196 196 197 199 211 226 243 253 251 253 249 236 202 104 91 113 91 69 46 309 298 297 295 284 284 301 332 345 347 349 354 359 359 1 6 12 10 6 10 7 358 358 7 14 9 359 350 347 353 13 29 32 28
174 177 180 182 181 181 183 184 185 187 188 188 187 186 186 188 188 187 186 185 184 186 187 184 185 190 192 193 194 192 195 199 196 193 192 197 215 232 247 257 258 253 238 216 150 81 91 99 90 91 80 300 286 275 274 282 304 335 355 353 349 351 360 7 8 7 7 7 6 3 1 1 357 357 8 18 17 8 356 351 354 359 7 21 23
174 177 179 179 180 180 181 183 185 187 188 188 188 188 188 190 191 192 189 185 186 187 187 185 186 191 192 193 195 197 200 199 193 191 194 201 218 232 246 255 251 237 213 175 124 93 88 96 108 130 214 266 256 263 294 306 335 2 4 358 1 7 11 12 9 8 4 2 4 4 6 14 21 21 22 25 22 12 360 357 360 358 0 15 15
176 176 176 177 180 180 181 182 184 185 187 188 190 190 190 190 192 194 193 189 188 187 185 185 187 190 192 194 198 204 206 200 193 194 197 208 224 232 245 248 233 217 200 159 117 92 88 104 129 168 204 233 251 322 339 343 9 18 8 10 18 19 16 10 5 6 2 1 6 9 12 16 29 39 37 33 32 24 11 4 4 1 1 10 6
180 178 177 181 183 182 182 183 184 184 186 188 192 193 192 191 193 194 194 192 189 187 185 185 187 188 192 196 200 205 205 199 197 199 202 217 230 238 251 246 222 208 208 141 101 99 112 129 152 179 191 209 336 24 23 26 28 17 9 17 21 18 15 11 11 13 11 12 14 14 14 13 22 37 39 31 31 30 19 6 2 3 3 7 6
183 181 180 184 185 184 184 184 183 184 186 189 191 195 194 193 195 195 194 193 190 188 186 186 188 189 192 196 199 201 200 199 201 205 211 224 234 244 252 238 204 198 74 83 101 126 138 144 160 176 179 114 65 56 46 40 21 7 14 21 22 25 23 18 20 22 21 23 20 15 15 16 22 32 32 26 22 18 16 9 2 359 358 3 10
184 183 184 185 184 184 184 183 182 183 187 190 190 193 197 196 196 195 192 191 189 188 187 187 189 191 192 193 196 200 201 202 205 208 219 231 237 245 247 226 199 12 50 108 135 141 140 147 163 167 133 87 74 64 49 42 23 20 34 36 34 35 27 22 23 21 22 25 25 22 20 21 25 28 27 24 19 13 10 12 9 359 351 355 0
185 184 184 184 184 184 182 181 181 182 188 191 190 193 196 196 196 193 191 190 188 187 188 189 190 191 191 192 196 202 204 206 208 211 219 228 235 246 245 226 245 345 124 149 145 139 137 144 151 125 99 81 61 62 63 59 47 45 53 51 41 33 20 19 22 20 26 31 33 32 28 29 30 28 25 20 17 14 6 360 359 359 354 351 354
186 186 185 184 184 183 181 181 180 182 187 190 190 194 196 195 194 190 189 188 186 188 189 188 188 188 189 193 199 203 204 208 214 217 220 224 233 243 240 230 255 240 167 154 145 141 137 123 96 80 82 66 59 76 86 80 68 61 60 49 35 25 10 19 28 26 32 35 35 35 34 35 35 30 31 32 21 7 1 359 357 0 2 356 357
186 188 187 184 183 181 181 182 183 183 185 186 188 194 197 197 193 189 188 188 187 187 187 186 186 187 189 195 201 203 206 213 218 220 223 226 230 234 232 230 219 185 162 152 148 143 128 96 65 65 80 81 83 92 94 84 73 59 46 37 34 27 14 33 41 34 38 39 36 37 36 36 36 32 32 34 27 9 360 3 7 6 5 4 3
184 186 185 182 181 183 182 184 185 184 186 186 188 194 197 193 189 188 189 189 188 186 185 186 188 191 195 199 204 207 211 217 218 221 225 225 226 227 223 211 190 172 155 146 144 132 114 87 73 89 109 112 103 100 96 80 68 48 40 40 36 31 30 56 52 40 42 39 36 36 34 34 35 32 32 32 28 22 8 359 4 5 5 11 11
182 182 181 181 185 188 187 186 186 185 187 188 191 195 194 189 187 189 190 189 188 186 185 187 191 196 201 204 208 212 215 219 220 222 223 220 221 218 202 189 177 162 146 144 143 132 127 117 110 120 128 123 112 103 91 68 54 39 37 40 40 39 49 66 60 48 45 41 37 39 39 39 37 34 37 39 36 30 20 9 9 14 18 24 26
181 180 182 187 188 189 189 186 186 187 188 189 194 196 192 188 188 190 191 189 187 186 187 190 194 198 204 208 212 215 218 220 221 222 221 217 208 192 183 177 165 153 149 154 154 154 162 157 131 131 130 125 118 106 83 51 35 26 28 37 46 55 71 75 68 59 55 51 49 50 50 49 46 44 46 48 46 41 34 33 34 38 43 42 40
180 181 184 187 185 186 188 186 185 190 190 189 195 196 190 187 189 191 192 190 187 187 189 193 197 200 207 212 215 218 220 222 223 222 217 200 183 176 175 170 158 155 161 165 167 175 182 176 144 133 123 118 114 103 79 32 7 5 14 34 55 73 84 83 76 70 68 66 64 62 60 58 54 53 54 54 54 52 51 55 56 55 55 51 46
179 180 182 185 186 188 189 185 185 190 191 191 195 194 189 187 189 191 193 192 189 190 193 197 201 205 211 214 217 220 222 222 220 214 194 175 171 172 172 167 160 161 169 173 182 190 191 195 183 149 127 117 107 92 55 341 329 337 357 31 62 80 86 83 78 76 78 77 74 70 66 63 60 58 58 58 59 60 62 65 65 62 57 53 49
177 178 183 186 186 186 184 184 187 189 189 190 193 192 188 187 188 190 193 194 192 193 197 201 205 210 213 215 218 220 220 218 208 190 173 167 169 173 172 168 165 169 176 183 191 197 204 216 209 173 144 133 119 97 317 289 289 307 342 23 56 73 78 77 78 81 83 80 76 75 71 67 63 61 60 60 61 63 66 67 65 61 57 53 50
177 181 185 183 181 182 182 184 187 187 188 189 190 189 188 187 188 191 193 195 195 197 201 204 208 213 214 216 219 220 219 214 192 170 166 167 172 176 172 168 171 177 183 189 194 200 209 213 205 189 175 169 163 178 258 248 247 275 323 8 45 67 73 74 79 85 88 84 79 78 77 73 67 64 62 60 61 64 65 64 62 59 56 53 51
178 183 184 180 178 180 180 182 185 187 188 187 188 189 189 189 191 194 195 195 197 200 204 207 211 214 215 218 220 219 219 208 175 163 166 170 176 178 173 172 179 185 188 194 200 201 197 196 201 203 208 216 219 229 243 237 234 249 292 4 46 67 74 77 83 90 93 89 82 80 81 78 72 67 64 62 61 63 63 62 59 56 54 52 51
181 185 183 177 174 176 178 181 184 186 187 187 189 190 190 191 193 196 198 198 199 202 206 210 214 215 217 220 220 218 217 197 167 165 169 174 178 178 176 179 184 190 193 199 206 202 193 195 207 214 219 227 232 238 243 238 235 250 296 37 60 70 77 82 89 95 96 92 86 82 81 81 77 71 68 64 62 62 62 61 58 54 52 51 50
181 184 182 174 169 172 179 183 185 185 186 187 190 191 192 195 196 198 201 201 202 205 208 211 215 215 218 220 218 216 210 180 163 166 172 177 180 180 181 184 186 192 198 204 209 207 201 201 207 215 220 223 228 236 239 235 239 261 351 56 70 75 81 88 98 102 99 93 89 87 83 82 80 76 71 67 64 63 62 61 58 54 50 49 48
181 183 179 168 164 172 182 185 185 186 185 185 188 191 193 196 197 199 200 202 205 207 209 213 214 215 218 216 213 211 195 169 164 168 174 179 183 183 186 189 190 195 202 206 207 207 204 203 203 208 213 217 223 225 212 208 221 209 88 86 87 86 87 95 103 105 101 95 93 92 88 85 83 80 76 71 66 63 62 60 57 54 50 47 47
178 176 168 163 169 178 183 184 183 185 184 184 186 190 193 195 196 198 200 203 206 208 212 215 214 215 215 209 206 198 176 165 165 171 176 182 186 188 191 194 196 201 206 205 201 200 201 202 202 202 207 211 210 197 175 166 163 142 125 111 103 100 98 100 104 105 104 100 98 98 95 91 88 83 80 78 71 65 62 59 56 54 50 46 44
164 160 163 173 181 184 184 182 182 184 185 185 188 190 193 196 198 201 203 204 206 210 214 215 214 214 208 201 199 185 166 162 166 172 179 185 189 191 194 196 198 201 202 198 195 196 196 197 196 196 199 199 187 172 160 155 151 144 136 125 116 111 106 103 102 104 109 110 109 109 105 97 90 84 81 81 78 71 65 62 58 54 50 46 42
163 169 177 185 188 187 187 185 184 186 187 188 190 192 194 197 199 202 203 203 206 211 213 213 211 205 196 196 197 176 160 162 170 176 182 187 190 194 195 195 196 195 192 191 192 194 191 189 190 191 190 186 177 165 156 154 148 139 137 133 124 117 111 107 104 104 111 119 121 119 112 102 92 86 83 80 79 76 70 66 63 57 52 48 43
177 182 186 190 192 192 192 190 188 189 190 192 195 195 196 198 199 200 200 202 206 209 210 208 203 193 192 199 192 167 160 167 177 182 187 191 194 198 198 199 199 194 191 191 190 188 186 184 185 186 185 180 171 158 150 149 144 136 137 136 128 122 118 113 109 107 110 119 125 127 121 110 100 93 90 84 80 78 74 70 68 62 55 51 46
184 188 189 191 193 195 196 195 192 192 194 196 196 196 197 198 198 199 200 202 206 206 206 203 195 189 194 199 181 163 164 173 181 186 192 195 199 202 203 204 201 193 191 189 184 182 181 182 184 184 183 175 163 151 145 145 142 137 140 139 132 129 126 120 117 115 113 113 115 119 120 118 114 104 97 92 86 80 78 75 72 65 56 51 47
186 189 189 190 192 195 195 194 192 192 194 195 193 193 197 198 198 199 201 203 205 204 203 200 192 191 200 200 176 167 170 176 181 188 194 198 203 207 207 206 198 191 189 185 181 181 181 180 182 183 179 170 158 148 143 143 142 141 144 143 138 135 131 126 124 122 118 111 104 101 105 113 120 112 104 101 95 87 83 80 75 67 56 49 48
187 191 192 192 196 198 196 193 192 191 193 193 191 192 196 198 197 199 200 203 205 206 207 202 195 198 207 198 177 172 175 179 184 191 196 200 206 210 210 208 198 188 185 181 179 181 182 179 179 181 178 166 156 149 144 144 146 147 148 146 143 140 135 130 127 123 116 108 100 95 96 104 115 115 112 111 104 93 88 85 80 71 59 52 51
190 194 195 194 198 201 197 193 192 192 192 192 191 194 198 198 196 198 201 205 208 212 210 201 197 204 204 185 175 176 179 183 189 194 199 203 207 210 212 211 200 187 182 181 181 180 180 180 177 176 176 167 157 149 146 146 148 148 151 150 146 144 139 132 127 120 112 106 102 98 97 101 110 116 118 119 113 100 92 92 88 76 66 61 58
191 192 193 194 198 200 197 194 194 193 194 195 196 197 197 196 197 199 203 207 211 214 209 199 199 204 193 177 175 179 183 188 192 197 201 204 207 211 214 211 198 188 182 182 183 179 177 178 176 173 174 170 159 150 147 150 150 150 154 154 151 148 141 133 126 119 114 109 106 104 103 103 107 112 118 123 123 112 98 98 96 79 73 75 70
194 193 193 195 197 197 196 195 195 195 196 198 199 197 195 198 203 204 207 213 213 212 210 204 202 198 185 178 179 184 189 192 195 199 203 206 208 212 214 206 193 188 185 184 184 183 178 174 173 173 173 171 163 154 152 157 157 154 155 156 156 154 144 133 127 122 117 112 109 107 105 104 104 107 113 120 127 124 107 98 94 79 77 82 80
194 196 196 195 194 194 194 194 194 196 197 199 201 199 198 204 208 209 215 219 212 207 208 203 197 190 182 181 184 189 194 196 198 201 206 210 211 212 210 201 190 186 187 185 183 185 182 175 173 175 175 173 169 161 160 167 168 160 157 157 158 158 147 136 129 124 118 114 110 106 101 98 98 102 107 113 123 129 120 110 99 80 81 83 80
194 196 195 194 193 195 196 195 197 199 202 204 205 202 201 206 212 215 218 216 207 207 207 196 188 186 183 183 188 193 197 199 203 206 208 210 211 212 208 199 188 184 186 185 182 183 182 177 174 175 176 174 171 167 166 172 181 171 156 157 160 156 148 139 132 126 122 118 113 107 99 93 88 90 95 101 110 120 129 124 100 83 88 85 69
192 193 194 194 194 195 197 198 198 201 204 206 206 207 207 212 219 222 219 211 209 212 203 187 183 185 185 186 192 196 199 203 206 208 208 207 209 211 208 198 188 184 184 184 180 179 179 177 174 175 178 176 173 173 174 181 193 182 148 154 163 156 148 145 138 131 127 123 117 109 101 92 82 78 82 88 93 104 125 127 107 98 105 87 43
190 191 193 195 195 196 198 199 197 199 203 204 206 211 213 217 224 227 221 211 209 206 193 182 181 184 186 190 195 198 202 206 207 207 208 207 208 209 204 196 190 187 185 183 180 178 179 179 175 175 178 178 178 179 181 188 198 195 163 162 166 155 147 147 144 136 131 126 120 113 105 94 81 73 74 78 83 91 109 129 145 169 196 247 318
192 192 192 195 197 197 198 198 198 200 202 204 206 211 215 219 224 224 216 206 201 194 184 180 183 187 192 196 199 201 203 205 206 207 209 209 209 208 202 195 191 189 188 185 181 178 179 180 178 176 177 180 182 183 186 193 202 206 191 175 167 158 153 153 149 140 133 129 125 120 111 98 86 75 71 72 76 80 90 105 121 144 181 224 280
192 193 193 195 198 199 198 198 199 201 203 203 206 212 217 216 215 214 208 198 191 185 181 184 191 196 199 201 201 201 203 205 207 209 211 212 212 208 200 194 191 190 190 187 182 180 181 182 179 177 177 181 186 188 191 196 201 203 193 178 170 165 161 158 153 145 139 134 131 127 120 107 93 81 76 72 71 73 78 88 94 93 92 82 68
193 194 195 196 197 198 197 196 198 202 205 207 211 217 218 213 206 205 201 191 185 183 187 194 199 200 200 200 199 200 202 205 209 211 214 217 216 208 199 193 190 190 190 189 184 180 181 182 180 178 178 181 185 190 193 195 195 192 187 180 174 170 165 161 158 154 148 144 138 133 129 123 109 92 83 77 71 70 73 81 87 87 84 75 67
194 196 198 197 194 193 195 197 199 203 207 212 215 215 214 209 202 199 194 187 185 189 196 201 201 199 198 199 200 201 201 203 207 210 213 217 215 207 199 194 192 190 189 189 187 183 182 183 181 179 180 181 183 186 189 189 189 187 184 178 173 170 168 165 162 157 151 150 150 148 144 142 133 109 89 79 73 72 74 77 80 83 82 76 69
195 198 201 200 198 198 201 203 204 205 207 212 212 206 202 203 199 192 187 187 190 195 199 201 200 199 199 200 202 201 200 202 206 209 211 212 208 202 200 198 197 194 192 191 189 187 186 187 184 182 183 183 183 186 188 188 188 186 181 176 173 172 171 169 165 158 148 146 155 159 156 154 152 131 98 86 83 79 76 75 74 74 76 75 72
196 198 199 200 200 202 205 206 207 208 209 210 206 197 194 199 195 189 187 189 194 198 201 201 200 200 201 201 201 201 202 204 206 206 207 205 202 201 204 204 200 198 198 198 195 192 190 190 189 188 187 186 185 186 187 188 186 182 179 179 178 178 177 174 169 160 148 142 150 159 162 164 164 154 119 101 99 89 77 74 73 71 70 72 73
197 196 196 197 199 201 203 205 206 207 207 207 204 196 193 195 193 191 191 193 196 200 202 201 200 201 202 201 200 201 205 208 208 206 202 198 197 201 206 204 198 194 196 199 200 198 195 191 188 187 187 189 191 189 188 186 183 182 183 184 183 182 181 177 172 164 155 151 153 158 163 165 165 161 146 122 112 102 87 76 74 73 69 66 64
196 196 195 198 200 202 204 205 204 204 203 203 201 197 194 194 194 194 195 196 197 199 199 199 201 202 202 201 202 204 207 210 210 208 202 197 197 198 197 194 191 188 188 188 191 198 199 193 188 186 183 183 189 193 192 189 187 189 190 187 184 182 179 175 172 168 164 162 160 161 163 162 159 156 149 143 128 117 109 98 81 73 66 59 51